DECAYED

CZ-2C DEB, 68376 (Decayed)

Orbit data source: Space-Track

CZ-2C DEB, 68376 was space debris in SSO originally from a launch on Thu, 15 Jan 2026 UTC launched from the Jiuquan Satellite Launch Center, China (JSC). Debris objects in space refer to the collection of defunct objects orbiting the Earth. Examples of debris include non-operational satellites, rocket bodies, and fragments generated from explosions, collisions, or faulty payload assembly.

Loading next visibility...
Identifier
68376, 2026-009E
Orbit
Decayed
Country
Flag of CNCN / PRC
Related business
Manufacturer
CALT?
Mission
Decayed spacecraft
Bus & Motor
Unknown
Mass
1 kg wet, 1 kg dry
Launch date (UTC)
2026-01-15 (5 months ago)
Launch vehicle
Unknown
Launch site
Jiuquan Satellite Launch Center, China (JSC)
Object type
Payload
Rocket body
Debris
Shape & HBR
Unknown shape, 1.1 m
Radar Cross Section
Medium (>0.1 m² and <1 m²)

Expand to show TLE details & history
Last TLE update: 2 months ago

TLE from 2 months ago
0 CZ-2C DEB
1 68376U 26009E   26095.78768042  .06529614  97739-1  98858-2 0  9990
2 68376  97.4099 172.8085 0013985 293.2375  66.7436 16.09343305  4019
Epoch: 2026-04-05T18:54Z
TLE epoch observation values (Epoch: 2026-04-05T18:54:15.588Z)
Latitude
0.00007°
Longitude
55.15545°
Altitude
248.206 km
Speed
7.76 km/s
True Right ascension
11h 31m 14s
True Declination
0° 00' 00"
Sunlit
Object was in full shadow at epoch
Visualization orbit readout
Latitude
Unknown
Longitude
Unknown
Altitude
Unknown
Speed
Unknown
Apparent Right ascension
Unknown
Apparent Declination
Unknown
Sunlit
N/A
Visualization observer readout
Local Sidereal Time
07:13:36
Azimuth
Unknown
Elevation
Unknown
Doppler factor
Unknown
Orbital elements
Apogee altitude
254.757 km
Perigee altitude
236.23 km
Semi-major axis
6,623.63 km
Eccentricity
0.0014
Inclination
97.4099°
RAAN
172.8085°
Arg. of periapsis
293.2375°
True anomaly
66.89094°
Mean anomaly
66.7436°
Eccentric anomaly
66.81726°
Mean motion
4.02623 °/min
Orbital period
89.41 mins
BSTAR
0.0098858
Loading maneuver chart data...
Computing Atmospheric mass density...
Loading historical data...
Loading historical data...
Loading historical data...
Loading historical data...
Loading historical data...
Loading historical data...
Loading historical data...
Other satellites on launch #9 in the year 2026 (2026-01-15 UTC)

Documentation

Showing up to 5 results
|